Weather History for KAYS - October, 2013

Change the Weather History Date:

Thursday, October 24, 2013

  Actual Average (KAMG) Record (KAMG)
Temperature  
Mean Temperature 60 °F 66 °F  
Max Temperature 73 °F 77 °F 87 °F (1949)
Min Temperature 46 °F 55 °F 34 °F (2006)
Degree Days  
Heating Degree Days 6 2  
Month to date heating degree days 26  
Since 1 July heating degree days 28  
Cooling Degree Days 0 3  
Month to date cooling degree days 136  
Year to date cooling degree days 2406  
Growing Degree Days 10 (Base 50)    
Moisture  
Dew Point 47 °F    
Average Humidity 71    
Maximum Humidity 100    
Minimum Humidity 40    
Precipitation  
Precipitation 0.00 in 0.10 in 4.25 in (2002)
Month to date precipitation 2.45  
Year to date precipitation 40.30  
Snow  
Snow 0.00 in 0.00 in 0.00 in ()
Month to date snowfall 0.0  
Since 1 July snowfall 0.0  
Since 1 September snowfall 0.0  
Snow Depth -    
Sea Level Pressure  
Sea Level Pressure 30.15 in    
Wind  
Wind Speed 3 mph (NNW)    
Max Wind Speed 9 mph    
Max Gust Speed -    
Visibility 10 miles    
Events      
T = Trace of Precipitation, MM = Missing Value Source: NWS Daily Summary

Daily Weather History Graph

Daily Weather History Graph

Search for Another Location

Airport or City:

Trip Planner

Search our weather history database for the weather conditions in past years. The results will help you decide how hot, cold, wet, or windy it might be!

Date:

Astronomy

Oct. 24, 2013 Rise Set
Actual Time 7:39 AM EDT 6:47 PM EDT
Civil Twilight 7:14 AM EDT 7:12 PM EDT
Nautical Twilight 6:45 AM EDT 7:40 PM EDT
Astronomical Twilight 6:17 AM EDT 8:09 PM EDT
Moon 11:18 PM EDT (10/24) 12:30 PM EDT (10/24)
Length of Visible Light 11h 58m
Length of Day
11h 08m
Waning Gibbous, 71% of the Moon is Illuminated
Oct 24
Waning Gibbous
Oct 26
Last Quarter
Nov 3
New
Nov 10
First Quarter
Nov 17
Full

Hourly Weather History & Observations

Time (EDT) Temp. Windchill Dew Point Humidity Pressure Visibility Wind Dir Wind Speed Gust Speed Precip Events Conditions
12:15 AM 53.6 °F - 46.4 °F 77% 30.07 in 10.0 mi NNW 3.5 mph - N/A   Unknown
12:35 AM 53.6 °F - 46.4 °F 77% 30.07 in 10.0 mi North 5.8 mph - N/A   Unknown
12:55 AM 53.6 °F - 44.6 °F 72% 30.07 in 10.0 mi North 3.5 mph - N/A   Unknown
1:15 AM 53.6 °F - 44.6 °F 72% 30.07 in 10.0 mi North 3.5 mph - N/A   Unknown
1:35 AM 53.6 °F - 44.6 °F 72% 30.08 in 10.0 mi Calm Calm - N/A   Unknown
1:55 AM 53.6 °F - 44.6 °F 72% 30.08 in 10.0 mi Calm Calm - N/A   Unknown
2:15 AM 53.6 °F - 44.6 °F 72% 30.08 in 10.0 mi NNW 3.5 mph - N/A   Unknown
2:35 AM 51.8 °F - 44.6 °F 76% 30.09 in 10.0 mi Calm Calm - N/A   Unknown
2:55 AM 51.8 °F - 44.6 °F 76% 30.09 in 10.0 mi NNW 3.5 mph - N/A   Unknown
3:15 AM 48.2 °F - 44.6 °F 87% 30.09 in 10.0 mi North 4.6 mph - N/A   Unknown
3:35 AM 48.2 °F - 44.6 °F 87% 30.10 in 10.0 mi North 4.6 mph - N/A   Unknown
3:55 AM 50.0 °F - 44.6 °F 82% 30.10 in 10.0 mi North 3.5 mph - N/A   Unknown
4:15 AM 50.0 °F - 44.6 °F 82% 30.11 in 10.0 mi Calm Calm - N/A   Unknown
4:35 AM 50.0 °F - 44.6 °F 82% 30.11 in 10.0 mi Calm Calm - N/A   Unknown
4:55 AM 48.2 °F - 44.6 °F 87% 30.12 in 10.0 mi Calm Calm - N/A   Unknown
5:15 AM 46.4 °F 45.2 °F 44.6 °F 93% 30.13 in 10.0 mi NNW 3.5 mph - N/A   Unknown
5:35 AM 46.4 °F - 44.6 °F 93% 30.13 in 10.0 mi Calm Calm - N/A   Unknown
5:55 AM 46.4 °F - 44.6 °F 93% 30.13 in 10.0 mi Calm Calm - N/A   Unknown
6:15 AM 48.2 °F - 44.6 °F 87% 30.14 in 10.0 mi Calm Calm - N/A   Unknown
6:35 AM 48.2 °F - 44.6 °F 87% 30.14 in 10.0 mi Calm Calm - N/A   Unknown
6:55 AM 46.4 °F 45.2 °F 42.8 °F 87% 30.15 in 10.0 mi NNW 3.5 mph - N/A   Unknown
7:15 AM 46.4 °F - 42.8 °F 87% 30.16 in 10.0 mi Calm Calm - N/A   Unknown
7:35 AM 46.4 °F - 44.6 °F 93% 30.17 in 10.0 mi Calm Calm - N/A   Unknown
7:55 AM 46.4 °F - 44.6 °F 93% 30.17 in 10.0 mi Calm Calm - N/A   Unknown
8:15 AM 46.4 °F 45.2 °F 44.6 °F 93% 30.17 in 10.0 mi North 3.5 mph - N/A   Unknown
8:35 AM 48.2 °F - 44.6 °F 87% 30.18 in 10.0 mi North 4.6 mph - N/A   Unknown
8:55 AM 51.8 °F - 44.6 °F 76% 30.19 in 10.0 mi North 4.6 mph - N/A   Unknown
9:15 AM 53.6 °F - 44.6 °F 72% 30.20 in 10.0 mi North 5.8 mph - N/A   Unknown
9:35 AM 53.6 °F - 44.6 °F 72% 30.20 in 10.0 mi North 4.6 mph - N/A   Unknown
9:55 AM 55.4 °F - 44.6 °F 67% 30.21 in 10.0 mi NNE 6.9 mph - N/A   Unknown
10:15 AM 57.2 °F - 44.6 °F 63% 30.21 in 10.0 mi NNE 5.8 mph - N/A   Clear
10:35 AM 59.0 °F - 44.6 °F 59% 30.21 in 10.0 mi NNE 5.8 mph - N/A   Clear
10:55 AM 60.8 °F - 44.6 °F 55% 30.21 in 10.0 mi NE 3.5 mph - N/A   Clear
11:15 AM 62.6 °F - 44.6 °F 52% 30.21 in 10.0 mi NNE 3.5 mph - N/A   Clear
11:35 AM 62.6 °F - 44.6 °F 52% 30.22 in 10.0 mi NNE 5.8 mph - N/A   Clear
11:55 AM 64.4 °F - 44.6 °F 49% 30.22 in 10.0 mi NNW 9.2 mph - N/A   Clear
12:15 PM 64.4 °F - 44.6 °F 49% 30.21 in 10.0 mi North 5.8 mph - N/A   Clear
12:35 PM 66.2 °F - 44.6 °F 46% 30.20 in 10.0 mi NW 4.6 mph - N/A   Clear
12:55 PM 66.2 °F - 44.6 °F 46% 30.20 in 10.0 mi Calm Calm - N/A   Clear
1:15 PM 68.0 °F - 44.6 °F 43% 30.19 in 10.0 mi NW 3.5 mph - N/A   Clear
1:35 PM 69.8 °F - 44.6 °F 40% 30.17 in 10.0 mi NNW 5.8 mph - N/A   Clear
1:55 PM 69.8 °F - 46.4 °F 43% 30.16 in 10.0 mi NNW 4.6 mph - N/A   Clear
2:15 PM 69.8 °F - 46.4 °F 43% 30.15 in 10.0 mi West 3.5 mph - N/A   Clear
2:35 PM 69.8 °F - 46.4 °F 43% 30.14 in 10.0 mi NNW 3.5 mph - N/A   Clear
2:55 PM 71.6 °F - 46.4 °F 41% 30.14 in 10.0 mi Calm Calm - N/A   Clear
3:15 PM 71.6 °F - 46.4 °F 41% 30.13 in 10.0 mi SSW 3.5 mph - N/A   Clear
3:55 PM 73.4 °F - 48.2 °F 41% 30.12 in 10.0 mi Calm Calm - N/A   Clear
4:15 PM 73.4 °F - 48.2 °F 41% 30.11 in 10.0 mi Calm Calm - N/A   Clear
4:35 PM 73.4 °F - 48.2 °F 41% 30.11 in 10.0 mi Calm Calm - N/A   Clear
4:55 PM 73.4 °F - 48.2 °F 41% 30.11 in 10.0 mi Calm Calm - N/A   Clear
5:15 PM 73.4 °F - 48.2 °F 41% 30.11 in 10.0 mi West 3.5 mph - N/A   Clear
5:35 PM 73.4 °F - 48.2 °F 41% 30.12 in 10.0 mi WNW 3.5 mph - N/A   Clear
5:55 PM 73.4 °F - 48.2 °F 41% 30.12 in 10.0 mi WSW 4.6 mph - N/A   Clear
6:15 PM 71.6 °F - 50.0 °F 46% 30.13 in 10.0 mi West 4.6 mph - N/A   Clear
6:35 PM 69.8 °F - 51.8 °F 53% 30.13 in 10.0 mi Calm Calm - N/A   Clear
6:55 PM 64.4 °F - 53.6 °F 68% 30.13 in 10.0 mi Calm Calm - N/A   Clear
7:15 PM 62.6 °F - 55.4 °F 77% 30.14 in 10.0 mi Calm Calm - N/A   Clear
7:35 PM 60.8 °F - 53.6 °F 77% 30.14 in 10.0 mi Calm Calm - N/A   Clear
7:55 PM 60.8 °F - 55.4 °F 82% 30.14 in 10.0 mi Calm Calm - N/A   Clear
8:15 PM 59.0 °F - 53.6 °F 82% 30.14 in 10.0 mi SSW 3.5 mph - N/A   Clear
8:35 PM 57.2 °F - 55.4 °F 94% 30.15 in 10.0 mi Calm Calm - N/A   Clear
8:55 PM 59.0 °F - 55.4 °F 88% 30.15 in 10.0 mi Calm Calm - N/A   Clear
9:15 PM 57.2 °F - 55.4 °F 94% 30.15 in 10.0 mi Calm Calm - N/A   Clear
9:35 PM 57.2 °F - 55.4 °F 94% 30.16 in 10.0 mi Calm Calm - N/A   Clear
9:55 PM 57.2 °F - 53.6 °F 88% 30.16 in 10.0 mi Calm Calm - N/A   Unknown
10:15 PM 55.4 °F - 53.6 °F 94% 30.17 in 10.0 mi Calm Calm - N/A   Unknown
10:35 PM 55.4 °F - 53.6 °F 94% 30.17 in 10.0 mi Calm Calm - N/A   Unknown
10:55 PM 55.4 °F - 53.6 °F 94% 30.18 in 10.0 mi Calm Calm - N/A   Unknown
11:15 PM 55.4 °F - 53.6 °F 94% 30.18 in 10.0 mi Calm Calm - N/A   Unknown
11:35 PM 55.4 °F - 53.6 °F 94% 30.18 in 10.0 mi Calm Calm - N/A   Unknown
11:55 PM 53.6 °F - 53.6 °F 100% 30.19 in 10.0 mi Calm Calm - N/A   Unknown